Location: Gorrie
(43.8742°N, 81.1087°W)
Time: 14:02:19
(UTC+00:00)

Helios 1A Rocket - Pass Details

Date: 09 December 2025
Orbit: 432 x 442 km, 98.3° (Epoch: 19 January)

Event Time Altitude Azimuth Distance (km) Brightness Sun altitude
Rises 10:28:39 0° 148° (SSE) 2,400 6.7 -24.1°
Reaches altitude 10° 10:30:43 10° 141° (SE) 1,540 5.7 -23.7°
Maximum altitude 10:33:48 38° 71° (ENE) 684 3.7 -23.2°
Enters shadow 10:34:40 31° 35° (NE) 789 3.8 -23.0°
